Location: Ottawa
(45.4170°N, 75.7000°W)
Time: 01:07:59
(UTC-04:00)

Daily predictions for brighter satellites

Satellite Brightness Start Highest point End
(mag) Time Altitude Azimuth Time Altitude Azimuth Time Altitude Azimuth
Cosmos 2263 Rocket 3.9 00:03:56 10° NW 00:07:11 24° W 00:07:11 24° W
Lacrosse 4 Rocket 4.1 00:14:41 16° NNE 00:14:41 16° NNE 00:15:36 10° NNE
Cosmos 1092 Rocket 4.4 00:09:44 10° N 00:14:54 61° N 00:14:54 61° N
Cosmos 2322 Rocket 4.1 00:14:22 18° W 00:16:47 24° NW 00:21:19 10° N
ATLAS 3B R/B 4.2 00:23:00 28° ENE 00:23:00 28° ENE 00:26:52 10° NE
Cosmos 2237 Rocket 4.2 00:27:00 19° ENE 00:27:00 19° ENE 00:28:50 10° NE
Cosmos 2333 Rocket 4.1 00:27:43 22° NE 00:27:43 22° NE 00:29:57 10° NE
COSMOS 2455 4.4 00:39:48 26° ENE 00:39:48 26° ENE 00:42:31 10° NE
COSMOS 2428 3.8 00:43:01 41° N 00:43:01 41° N 00:46:44 10° NNE
ATLAS CENTAUR R/B 4.4 00:42:26 57° SW 00:45:20 90° NW 01:13:51 10° NE
Cosmos 2278 Rocket 3.3 00:51:19 10° NNW 00:54:51 40° NNW 00:54:51 40° NNW
CZ-2C R/B 3.8 01:15:45 10° NNE 01:19:23 43° NNE 01:19:23 43° NNE
Cosmos 2360 Rocket 4.3 01:27:34 18° WNW 01:28:38 19° NW 01:32:38 10° N
Cosmos 2219 Rocket 3.4 01:49:27 37° NNW 01:49:27 37° NNW 01:53:36 10° NNE
Lacrosse 4 Rocket 4.3 01:51:01 14° NNW 01:51:01 14° NNW 01:53:00 10° N
SL-16 R/B 3.0 02:05:24 49° NNE 02:05:24 49° NNE 02:09:31 10° NNE
Cosmos 2237 Rocket 3.2 02:08:49 40° NNW 02:08:49 40° NNW 02:13:14 10° NNE
Cosmos 2333 Rocket 3.3 02:09:43 37° NW 02:09:43 37° NW 02:14:20 10° NNE
ATLAS 3B R/B 3.1 02:10:14 61° WNW 02:10:42 62° NW 02:18:02 10° NE
ATLAS CENTAUR R/B 3.6 02:10:40 10° NNW 02:13:15 24° N 02:13:15 24° N
CZ-4C R/B 2.8 02:21:12 52° ENE 02:21:12 52° ENE 02:25:50 10° NE
COSMOS 2455 3.8 02:22:56 37° NW 02:22:56 37° NW 02:28:26 10° NNE
BREEZE-M DEB (TANK) 4.1 02:29:32 37° NE 02:29:32 37° NE 02:32:14 10° ENE
S3M 4.5 02:30:22 51° E 02:30:33 51° E 02:36:39 10° NNE
ATLAS 5 CENTAUR R/B 4.4 02:33:43 12° E 02:33:43 12° E 02:35:04 10° E
Meteor 2-2 Rocket 4.4 02:41:00 73° NNE 02:41:00 73° NNE 02:46:21 10° NNE
SL-16 R/B 3.9 02:38:26 17° ESE 02:42:31 35° ENE 02:48:02 10° N
Cosmos 1603 3.9 02:47:15 66° ENE 02:47:15 66° ENE 02:52:21 10° NNE
Cosmos 1553 Rocket 4.0 02:49:20 70° ESE 02:49:28 71° E 02:55:33 10° NNE
Cosmos 1745 Rocket 4.1 02:45:16 10° N 02:51:40 73° E 02:52:20 67° ESE
BREEZE-M DEB (TANK) 4.3 03:00:54 39° E 03:00:54 39° E 03:04:32 10° E
SL-08 R/B 4.3 02:53:34 10° N 02:59:36 85° WNW 02:59:36 85° WNW
IRS-P3 4.2 02:54:31 10° NNE 02:59:17 71° N 02:59:17 71° N
Cosmos 1331 Rocket 4.3 02:54:44 10° NNW 02:59:59 63° ENE 03:00:06 63° ENE
SL-08 R/B 4.3 03:01:45 39° NNW 03:01:45 39° NNW 03:04:44 10° NNW
CZ-2D R/B 3.7 02:56:43 10° NE 03:01:05 26° E 03:02:30 23° ESE
Cosmos 1417 Rocket 4.4 03:02:14 74° W 03:02:17 74° W 03:08:41 10° N
USA 234 4.0 02:56:48 10° ENE 03:02:45 36° SE 03:03:20 36° SE
ARIANE 5 R/B 3.7 02:59:30 10° NNE 03:04:17 35° E 03:05:06 33° ESE
USA 238 DEB 4.1 03:05:39 49° W 03:06:54 55° NW 03:13:50 10° NNE
USA 238 4.0 03:05:46 49° W 03:07:00 55° NW 03:13:56 10° NNE
Cosmos 1867 4.2 03:07:23 45° NW 03:07:23 45° NW 03:12:35 10° NNE
Cosmos 1607 4.4 03:08:04 46° WNW 03:08:37 48° NW 03:14:34 10° NNE
Cosmos 1726 3.9 03:10:37 31° NNE 03:10:37 31° NNE 03:12:44 10° NNE
Meteor 2-3 Rocket 4.0 03:04:18 10° N 03:10:04 65° ENE 03:11:17 52° SE
ADEOS 3.9 03:05:03 10° NNE 03:10:12 58° E 03:10:23 58° ESE
Cosmos 158 Rocket 4.0 03:14:01 70° N 03:14:01 70° N 03:18:28 10° NNE
Cosmos 1151 Rocket 4.4 03:15:07 33° NNW 03:15:07 33° NNW 03:17:49 10° N
Cosmos 1707 Rocket 4.2 03:14:53 55° NE 03:14:53 55° NE 03:18:43 10° NNE
Cosmos 1943 3.5 03:15:03 54° SE 03:15:31 56° ESE 03:21:03 10° NNE
AQUA 4.1 03:14:43 10° N 03:18:51 64° NNW 03:18:51 64° NNW
NOSS 3-2 (A) 3.3 03:20:43 71° SW 03:21:29 84° NW 03:28:15 10° NE
NPP 3.7 03:16:27 10° N 03:21:41 65° WNW 03:21:41 65° WNW
Cosmos 2369 Rocket 2.0 03:18:24 10° NNW 03:24:02 88° WSW 03:24:37 73° SSE
Cosmos 1300 4.1 03:25:56 34° N 03:25:56 34° N 03:28:15 10° N
UNK 4.3 03:25:15 48° ESE 03:26:06 56° ENE 03:30:37 10° N
NOAA 9 4.5 03:25:05 10° NNE 03:30:32 80° WNW 03:30:54 75° SW
NOSS 3-3 (A) 4.4 03:23:30 10° NW 03:30:47 59° WSW 03:33:13 43° S
NOSS 3-3 (C) 4.4 03:23:36 10° NW 03:30:53 60° WSW 03:33:32 41° S
Resurs 1-4 Rocket 2.8 03:27:05 10° NNE 03:32:11 49° E 03:33:46 37° SE
CENTAUR R/B 3.9 03:32:55 22° SSE 03:35:30 30° ESE 03:41:14 10° NE
Cosmos 883 Rocket 4.4 03:35:07 51° S 03:36:46 83° E 03:42:56 10° N
Cosmos 1455 3.5 03:36:58 35° ESE 03:37:20 35° E 03:40:56 10° NNE
Cosmos 1110 Rocket 4.4 03:32:20 10° NNW 03:36:21 47° WNW 03:36:21 47° WNW
Centaur D-1A AC-31 4.1 03:38:23 29° S 03:38:23 29° S 03:43:43 10° SE
NOSS 3-2 (C) 3.4 03:37:46 58° SW 03:39:06 80° NW 03:45:54 10° NE
Cosmos 1943 Rocket 2.7 03:37:37 10° NNW 03:43:14 60° ENE 03:48:48 10° SE
Cosmos 2251 Rocket 3.4 03:42:50 69° WSW 03:43:17 74° WNW 03:48:34 10° NNE
Abrixas rocket 3.7 03:45:11 37° NE 03:45:11 37° NE 03:47:35 10° E
Okean O Rocket 3.9 03:41:52 10° NE 03:45:15 21° E 03:48:35 10° SE
CBERS-1 4.5 03:42:13 10° N 03:47:04 44° WNW 03:47:10 44° WNW
SL-16 R/B 3.9 03:47:17 18° WNW 03:48:40 20° NW 03:52:46 10° N
Cosmos 1271 Rocket 4.1 03:50:44 30° NW 03:50:44 30° NW 03:53:23 10° N
Cosmos 2315 Rocket 4.0 03:51:10 35° S 03:53:58 80° E 04:00:17 10° N
ERS-1 4.4 03:53:54 10° N 03:58:48 62° WNW 03:59:32 55° WSW
Cosmos 2263 4.1 03:54:35 10° NNW 04:00:20 65° WSW 04:03:20 29° S
ERS-2 2.5 03:57:13 10° N 04:00:25 54° NW 04:00:25 54° NW
BREEZE-M DEB (TANK) 4.4 04:02:42 16° ESE 04:02:42 16° ESE 04:03:15 10° ESE
Meteor 2-11 Rocket 4.5 03:59:03 31° S 04:02:11 79° E 04:08:16 10° N
MTI 4.5 04:05:51 43° SE 04:06:37 56° ENE 04:09:55 10° N
CZ-4C R/B 3.7 04:06:22 21° WNW 04:08:58 29° NNW 04:14:23 10° NNE
Cosmos 1825 3.8 04:06:49 10° N 04:10:19 33° ENE 04:13:47 10° SE
Cosmos 494 Rocket 4.2 04:11:19 44° WSW 04:12:35 55° WNW 04:17:46 10° NNE
ATLAS 5 CENTAUR R/B 1.8 04:15:16 44° SSW 04:16:54 85° SE 04:22:13 10° NE
Meteor 2-10 4.2 04:20:35 37° SW 04:22:34 57° WNW 04:27:53 10° N
Cosmos 2242 Rocket 4.0 04:22:02 42° WSW 04:22:47 46° WNW 04:27:12 10° N
Cosmos 1862 Rocket 3.5 04:21:36 36° S 04:23:22 89° WNW 04:27:48 10° N
SL-16 R/B 2.8 04:23:32 30° SSW 04:26:01 43° W 04:31:55 10° NNW
Cosmos 1302 Rocket 4.4 04:22:51 10° NW 04:27:43 39° WSW 04:28:59 34° SW
EO 1 Del DPAF 3.7 04:35:15 40° WSW 04:35:35 41° W 04:39:19 10° NNW
IRS-1D 4.1 04:30:58 10° N 04:35:50 41° WNW 04:37:54 29° WSW
UNKNOWN OBJECT B 2.8 04:32:14 10° N 04:35:53 54° WNW 04:36:50 41° SW
Cosmos 1862 3.4 04:32:01 10° N 04:36:00 76° E 04:39:58 10° SSE
Nadezhda 1 Rocket 4.5 04:32:11 10° S 04:38:20 63° E 04:44:38 10° NNE
Cosmos 1709 Rocket 4.5 04:32:36 10° NNW 04:38:26 40° W 04:41:40 23° SW
Cosmos 1892 4.2 04:37:51 10° NW 04:40:09 22° WNW 04:40:09 22° WNW
CZ-2C R/B 3.6 04:36:32 10° SSE 04:40:58 88° W 04:45:25 10° NNW
CZ-2D R/B 2.5 04:36:21 10° N 04:41:22 45° WNW 04:43:49 26° WSW
Cosmos 1184 Rocket 3.4 04:39:21 10° NNW 04:42:34 37° W 04:42:34 37° W
ARIANE 5 R/B 3.4 04:38:41 10° N 04:43:21 34° WNW 04:45:27 25° WSW
SeaSat 1 2.4 04:40:56 10° SSE 04:45:49 65° WSW 04:50:45 10° NNW
Cosmos 1733 Rocket 3.6 04:42:04 10° NNW 04:46:05 36° W 04:47:36 28° SW
USA 234 3.3 04:39:32 10° NE 04:46:05 75° NW 04:50:41 21° WSW
Cosmos 1869 3.6 04:44:49 32° SW 04:46:10 46° WNW 04:50:02 10° N
Cosmos 389 Rocket 2.6 04:49:10 33° SW 04:50:24 51° WNW 04:53:52 10° N
Cosmos 1782 Rocket 3.7 04:51:09 10° N 04:55:31 76° E 04:59:50 10° SSE
Cosmos 1933 3.3 04:54:18 15° SSW 04:57:35 75° W 05:01:43 10° N
CZ-4B R/B 2.7 04:54:53 10° NNE 04:58:34 78° ESE 05:02:20 10° S
Cosmos 1943 4.4 04:56:52 18° W 04:59:55 27° NW 05:04:42 10° N
Cosmos 2074 Rocket 4.0 04:55:09 10° NNW 05:01:14 59° W 05:07:19 10° S
COSMOS 2406 3.2 04:58:36 14° SSW 05:03:39 86° WNW 05:09:27 10° NNE
Cosmos 2154 Rocket 4.2 04:58:54 10° N 05:05:16 78° E 05:11:37 10° SSE
Cosmos 2184 Rocket 4.1 05:00:13 10° NNW 05:06:26 56° W 05:12:37 10° SSW
Cosmos 2369 Rocket 3.9 05:04:40 10° WNW 05:06:18 13° W 05:06:18 13° W
MOZ.5/SAFIR/RUBIN 5/SL-8 4.1 05:05:01 10° S 05:09:25 43° W 05:13:52 10° NNW
CZ-2D R/B 4.4 05:06:49 10° N 05:10:48 34° WNW 05:13:35 17° SW
ASTRO F (AKARI) 4.4 05:07:15 10° S 05:10:48 70° WSW 05:14:12 10° NNW
Resurs 1-4 Rocket 3.3 05:07:30 10° N 05:11:45 25° WNW 05:14:50 15° WSW
COSMOS 2487 3.5 05:08:17 10° S 05:11:45 46° ESE 05:15:14 10° NNE
Aureole 3 Rocket 3.7 05:05:08 10° S 05:11:56 88° WNW 05:16:43 10° N
Cosmos 1174 4.2 05:07:43 15° SW 05:12:14 80° NW 05:16:30 10° NNE
Cosmos 1455 3.9 05:12:02 16° W 05:13:12 18° WNW 05:15:58 10° NNW
CZ-4B R/B 3.1 05:07:55 10° NNE 05:13:15 75° WNW 05:18:31 10° SSW
CZ-4B DEB 4.2 05:08:09 10° NNE 05:13:39 81° WNW 05:19:06 10° SSW
ADEOS Rocket 3.9 05:07:49 10° NNE 05:15:34 71° ESE 05:23:16 10° S
Cosmos 1908 Rocket 4.0 05:11:47 10° NNW 05:15:52 38° W 05:19:53 10° SSW
Cosmos 1190 Rocket 4.1 05:11:44 10° SSW 05:16:55 80° ESE 05:22:08 10° NNE
Abrixas rocket 2.1 05:18:12 10° WNW 05:21:33 83° SSW 05:24:53 10° ESE
Okean O Rocket 2.1 05:17:34 10° N 05:21:49 43° WNW 05:26:01 10° SW
Cosmos 1992 Rocket 4.4 05:16:58 10° NW 05:21:54 42° WSW 05:26:46 10° S
Thor Agena Rocket 3.6 05:18:04 10° S 05:23:08 58° WSW 05:28:19 10° NNW
ADEOS II 2.5 05:19:25 10° NNE 05:24:41 66° ESE 05:29:54 10° S
CENTAUR R/B 2.8 05:20:07 13° SW 05:25:40 60° NW 05:32:41 10° NE
Cosmos 2221 Rocket 3.7 05:21:55 10° SSW 05:26:15 55° WNW 05:30:37 10° N
Cosmos 1943 Rocket 3.3 05:22:15 10° NW 05:26:31 22° W 05:30:45 10° SSW
Cosmos 2341 Rocket 4.1 05:21:44 10° N 05:28:04 90° ENE 05:34:25 10° S
Okean-O 2.8 05:24:27 10° NNE 05:28:55 78° ESE 05:33:21 10° S
SL-27 R/B 3.7 05:27:08 14° WSW 05:29:38 26° WNW 05:32:45 10° N
Cosmos 1408 3.7 05:28:38 10° NW 05:31:43 25° W 05:34:49 10° SW
USA 32 4.3 05:27:56 10° SSW 05:33:01 49° W 05:38:07 10° N
Cosmos 1703 Rocket 4.1 05:31:50 10° SW 05:36:02 40° WNW 05:40:17 10° N
Cosmos 1825 3.7 05:43:08 10° NW 05:45:41 17° W 05:48:14 10° SW
Cosmos 2151 Rocket 3.5 05:45:22 10° NNW 05:49:47 79° W 05:54:10 10° S
